www.pogodaiklimat.ru

Погода и климат >> Архив погоды >> Грузия >> Тбилиси


АРХИВ ПОГОДЫ в Тбилиси

Время (UTC), дата Ветер
(напр.,м/с)
 
Видим.   Явления Облачность Т
(С)
Тd
(С)
f
(%)
Тe
(С)
Тes
(С)
Комфортность P
(гПа)
Po
(гПа)
Тmin
(С)
Tmax
(С)
R
(мм)
R24
(мм)
S
(см)
21 15.02 штиль 0 н/о 10/0 600 м
[As op]
+5.1 +4.4 95 +4 +4 тепло 1018.2 966.5
00 16.02 штиль 0 н/о 10/0 600 м
[As op]
+4.9 +4.2 95 +4 +4 тепло 1017.6 965.9
03 16.02 С 4 н/о 8/8 600 м
[Sc]
+5.1 +2.9 86 +1 +1 по сезону 1017.0 965.3
06 16.02 С 8 50 км 8/6 600 м
[Sc Ac lent]
+6.6 +1.9 72 +2 +2 по сезону 1017.5 966.0
09 16.02 С 10 50 км 8/8 600 м
[Cb calv]
+8.8 +0.9 58 +4 +4 по сезону 1016.2 965.2
12 16.02 СЗ 14 50 км 6/6 600 м
[Cb calv]
+9.6 +0.9 55 +5 +5 по сезону 1014.1 963.2
15 16.02 С 15 20 км 6/6 600 м
[Cu hum]
+7.4 0.0 59 +1 +1 по сезону 1015.3 964.1 +11.0
18 16.02 Ю 12 н/о 6/6 600 м
[Cu hum]
+6.5 -0.9 59 +1 +1 по сезону 1016.0 964.6 +11.0
21 16.02 З 15 н/о 6/5 600 м
[Cu hum Ac trans]
+5.7 -2.0 58 -1 -1 по сезону 1016.0 964.4
00 17.02 СЗ 8-8
{11}
н/о н/о +4.7 -1.5 64 -1 -1 по сезону 1017.8 965.6
03 17.02 З 15 н/о 8/8 600 м
[Cu hum]
+4.2 -1.9 64 -3 -3 по сезону 1016.9 965.0
06 17.02 З 16 50 км 6/6 600 м
[Cu hum]
+5.7 0.0 67 -1 -1 по сезону 1017.9 966.2
09 17.02 С 16 50 км 8/6 600 м
[Cu hum Ac lent]
+8.2 -1.9 49 +2 +2 по сезону 1017.8 966.7
12 17.02 СЗ 15 50 км 5/5 600 м
[Cu hum]
+8.2 -2.7 46 +3 +3 по сезону 1017.5 966.4
15 17.02 СЗ 12 50 км 8/4 600 м
[Cu hum Ac lent]
+6.0 -2.6 54 0 0 по сезону 1017.6 966.1 +9.5
18 17.02 С 14 н/о 3/3 600 м
[Cu hum]
+5.1 -2.8 57 -2 -2 по сезону 1018.5 966.8 +9.5
21 17.02 С 10 н/о 3/3 600 м
[Cu hum]
+4.6 -2.1 62 -2 -2 по сезону 1018.3 966.4
00 18.02 С 15 н/о 5/5 600 м
[Cu hum]
+4.7 -2.3 60 -3 -3 по сезону 1017.8 965.9
03 18.02 С 14 н/о 5/5 600 м
[Cu hum]
+5.0 -2.2 60 -2 -2 по сезону 1015.3 963.5
06 18.02 С 14 50 км 8/8 600 м
[Cb calv]
+6.9 -2.0 53 +1 +1 по сезону 1013.8 962.5
09 18.02 С 20 50 км 8/5 600 м
[Cb calv Ci]
+8.5 -1.2 50 +2 +2 по сезону 1010.7 959.9
12 18.02 СЗ 10-10
{13}
н/о н/о +6.6 -1.5 56 +1 +1 прохладно 1010.7 959.2
15 18.02 В 15 50 км 9/9 600 м
[Cb calv]
+5.5 -2.2 58 -1 -1 прохладно 1010.2 958.9 +9.0
18 18.02 С 17 н/о 4/4 600 м
[Cu hum]
+5.2 -1.3 63 -2 -2 по сезону 1009.6 958.3 +9.0
21 18.02 С 17 н/о слаб. дождь 10/0 600 м
[As op]
+4.2 +1.7 84 -4 -4 по сезону 1011.1 960.1
00 19.02 С 12 н/о слаб. дождь 10/0 600 м
[As op]
+5.0 +2.3 83 -2 -2 по сезону 1011.2 959.8
03 19.02 С 16 н/о ясно +4.6 -5.4 48 -3 -3 по сезону 1011.6 960.6
06 19.02 СЗ 17 50 км 3/3 600 м
[Cu hum]
+5.9 -7.2 38 -1 -1 по сезону 1015.6 964.0 1
09 19.02 С 20 50 км 4/4 600 м
[Cb calv]
+6.8 -2.5 51 -0 -0 по сезону 1017.1 965.6
12 19.02 СЗ 17
{17}
50 км 3/3 600 м
[Cu hum]
+6.5 -4.9 44 -0 -0 прохладно 1018.2 966.7
15 19.02 СЗ 17
{17}
50 км 3/3 600 м
[Cu hum]
+4.6 -3.9 54 -3 -3 прохладно 1021.3 969.2 +7.4
18 19.02 С 16
{16}
н/о 3/3 600 м
[Cu hum Ci fib]
+4.3 -4.3 54 -3 -3 по сезону 1022.7 970.6 +7.4
21 19.02 С 10 н/о ясно +3.2 -4.0 59 -3 -3 по сезону 1024.5 972.1
00 20.02 СЗ 8 н/о ясно +0.6 -3.4 75 -7 -7 прохладно 1026.6 973.5
03 20.02 н/о ясно -1.5 -3.0 89 1028.2 974.7
06 20.02 ЮВ 3 50 км 10/0 600 м
[As op]
+1.2 -2.0 79 -3 -3 прохладно 1029.7 976.7
09 20.02 В 4 50 км 9/9 600 м
[Cb calv]
+8.8 +3.8 71 +6 +7 тепло 1027.7 976.2
12 20.02 ЮВ 5 50 км 9/9 600 м
[Cb calv]
+4.8 -3.2 56 +1 +1 прохладно 1027.1 974.8
15 20.02 ЮВ 7 50 км 10/10 600 м
[Sc]
+4.0 -2.9 61 -1 -1 прохладно 1026.1 973.8 +5.0
18 20.02 В 4 н/о 10/0 600 м
[As op]
+3.2 -2.5 66 -1 -1 по сезону 1026.0 973.5 +5.0
21 20.02 СВ 4-1
{2}
н/о н/о 0.0 -3.0 80 -5 -5 прохладно 1025.5 972.5
00 21.02 В 3 н/о ясно -1.0 -2.5 90 -6 -6 прохладно 1024.2 970.9
03 21.02 штиль 0 н/о ясно -2.3 -3.9 89 -3 -3 по сезону 1023.4 969.9
06 21.02 С 4 50 км ясно +2.0 -4.1 64 -3 -0 прохладно 1022.8 970.3
09 21.02 С 4 10 км 5/4 600 м
[Cu hum Ac lent]
+8.6 -4.7 39 +6 +9 по сезону 1019.4 968.1
12 21.02 С 9 50 км 5/0 600 м
[Ac lent Ci]
+14.2 -5.0 26 +12 +12 тепло 1015.6 965.5
15 21.02 С 6 50 км 3/3 600 м
[Cu hum]
+11.6 -3.6 34 +9 +9 тепло 1016.7 966.1 +14.5
18 21.02 штиль 0 н/о ясно +7.5 -3.3 46 +7 +7 тепло 1019.3 967.9 +14.5
21 21.02 СЗ 4 н/о ясно +6.6 -1.8 55 +3 +3 тепло 1020.0 968.4
00 22.02 С 7 н/о ясно +5.6 +0.5 70 +1 +1 по сезону 1020.3 968.5
03 22.02 СЗ 5 н/о 6/6 600 м
[Cu hum]
+5.5 +1.5 75 +1 +1 по сезону 1020.2 968.4
06 22.02 С 9 50 км 6/4 600 м
[Cu hum]
+7.6 +1.1 63 +3 +3 по сезону 1020.1 968.7
09 22.02 С 12 50 км 6/3 600 м
[Cu hum As trans Ci]
+10.3 +0.4 50 +6 +6 по сезону 1018.3 967.4
12 22.02 СЗ 13 50 км 9/6 600 м
[Cu hum As trans Ci]
+11.0 -0.5 45 +7 +7 по сезону 1016.6 966.0
15 22.02 С 13 50 км 9/9 600 м
[Cu hum]
+8.8 -0.9 51 +4 +4 по сезону 1017.5 966.4 +11.5
18 22.02 СЗ 5 н/о 6/6 600 м
[Cu hum]
+6.2 -0.3 63 +2 +2 по сезону 1020.7 969.0 +11.5

 

Местоположение метеостанции Тбилиси (Грузия): широта 41.70 долгота 44.75 высота над уровнем моря 403 м.

В архиве по умолчанию представлена погода в Тбилиси за последнюю неделю. Архивные данные за месяц целиком и за предыдущие месяцы, начиная с января 2011 года, Вы можете получить, выбрав интересующий диапазон дат из раскрывающегося списка и нажав кнопку "Ввод!".


*Определитесь, кто Вы:
робот инопланетянин человек

Внимание! Время в таблицах - всемирное. Для получения местного времени необходимо прибавить поправку, которая равна 4 ч.

Смотрите также архив погоды в соседних городах и на ближайших метеорологических станциях:

Погода в Болниси (Грузия) (32 км)
Погода в Телави (Грузия) (58 км)
Погода в Гори (Грузия) (61 км)
Погода в Пасанаури (Грузия) (72 км)
Погода в Идйеване (Армения) (98 км)
Погода в Ванадзоре (Армения) (100 км)
Погода в Ашотске (Армения) (116 км)
Погода на Рокском Перевале (Северная Осетия, Россия) (117 км)
Погода в Наре (Северная Осетия, Россия) (125 км)
Погода в Аспиндзе (Грузия) (126 км)

Пояснения к столбцам:

Ветер - указаны скорость ветра в м/с - средняя за 10 мин, порывы в срок и между сроками (в фигурных скобках) и направление, откуда дует ветер: С - северный, СВ - северо-восточный, В - восточный, ЮВ - юго-восточный, Ю - южный, ЮЗ - юго-западный, З - западный, СЗ - северо-западный.
Видимость - горизонтальная дальность видимости в метрах или километрах. При видимости от 1 до 10 км при отсутствии осадков обычно наблюдается дымка, при ухудшении видимости до 1 км и менее - туман. В сухую погоду видимость может ухудшаться дымом, пылью или мглою.
Явления - указаны атмосферные явления, наблюдавшиеся в срок или в последний час перед сроком; фигурными скобками обозначены явления, наблюдавшиеся между сроками (за 1-3 часа до срока); квадратными скобками обозначены град или гололедные отложения с указанием их диаметра в мм.
Облачность - указаны через наклонную черту общая и нижняя облачность в баллах и высота нижней границы облаков в метрах; квадратными скобками обозначены формы облаков: Ci - перистые, Cs - перисто-слоистые, Cc - перисто-кучевые, Ac - высококучевые, As - высокослоистые, Sc - слоисто-кучевые, Ns - слоисто-дождевые, Cu - кучевые, Cb - кучево-дождевые. Подробнее классификацию облаков см. в Атласе облаков (PDF).
T - Температура воздуха - температура, измеренная на высоте 2 м над землей.
Td - Температура точки росы - температура, при понижении до которой содержащийся в воздухе водяной пар достигнет насыщения.
f - Относительная влажность воздуха - влажноcть воздуха, измеренная на высоте 2 м над землей.
Te - Эффективная температура - температура, которую ощущает одетый по сезону человек в тени. Характеристика душности погоды. При расчете учитывается влияние влажности воздуха и скорости ветра на теплоощущения человека.
Tes - Эффективная температура на солнце - температура, которую ощущает человек, с поправкой на солнечный нагрев. Характеристика знойности погоды. Зависит от высоты солнца над горизонтом, облачности и скорости ветра. Ночью, в пасмурную погоду, а также при ветре 12 м/с и более поправка равна нулю.
P - Атмосферное давление - приведенное к уровню моря атмосферное давление.
Po - Атмосферное давление - измеренное на уровне метеостанции атмосферное давление.
Tmin - Минимальная температура - минимум температуры воздуха на высоте 2 м над землей.
Tmax - Максимальная температура - максимум температуры воздуха на высоте 2 м над землей.
R - Количество осадков - Количество выпавших осадков за период времени, мм. При наведении курсора мыши на число - период времени, за который выпало указанное количество осадков.
R24 - Количество осадков - Количество выпавших осадков за 24 часа, мм.
S - Снежный покров - Высота снежного покрова, см. При наведении курсора мыши на число - состояние снежного покрова и степень покрытия местности в баллах.